Location: Bremen
(53.0830°N, 8.8000°E)
Time: 11:53:08
(UTC+02:00)

Envisat - Visible Passes

Search period start: 15 October 2019 00:00
Search period end: 25 October 2019 00:00
Orbit: 764 x 766 km, 98.1° (Epoch: 15 October)

Date Brightness Start Highest point End Pass type
(mag) Time Alt. Az. Time Alt. Az. Time Alt. Az.
15 Oct 3.1 19:18:55 10° SSE 19:24:01 84° WSW 19:29:08 10° NNW visible
15 Oct 6.0 21:00:59 10° WSW 21:03:50 15° W 21:06:43 10° NW visible
16 Oct 5.1 20:22:15 10° SSW 20:26:37 28° W 20:31:00 10° NNW visible
17 Oct 6.6 06:47:09 10° ENE 06:48:46 11° E 06:50:24 10° E visible
17 Oct 3.9 19:44:37 10° S 19:49:35 54° W 19:54:35 10° NNW visible
18 Oct 3.0 19:07:40 10° SSE 19:12:45 81° ENE 19:17:52 10° NNW visible
18 Oct 5.8 20:48:58 10° SW 20:52:25 18° W 20:55:54 10° NW visible
19 Oct 6.1 07:11:10 10° NE 07:14:41 18° E 07:18:12 10° SE visible
19 Oct 4.8 20:10:39 10° SSW 20:15:15 34° W 20:19:53 10° NNW visible
20 Oct 3.5 19:33:14 10° S 19:38:17 65° WSW 19:43:22 10° NNW visible
20 Oct 6.2 21:16:51 10° W 21:18:20 11° W 21:19:49 10° WNW visible
21 Oct 3.0 18:56:28 10° SSE 19:01:30 68° ENE 19:06:34 10° N visible
21 Oct 5.5 20:37:07 10° SW 20:41:01 22° W 20:44:56 10° NW visible
22 Oct 6.2 07:00:19 10° NE 07:03:16 15° E 07:06:11 10° ESE visible
22 Oct 4.4 19:59:07 10° SSW 20:03:54 41° W 20:08:44 10° NNW visible
23 Oct 3.2 19:21:54 10° SSE 19:26:59 79° WSW 19:32:07 10° NNW visible
23 Oct 6.1 21:04:18 10° WSW 21:06:53 14° W 21:09:28 10° NW visible
24 Oct 5.8 07:25:01 10° NE 07:29:06 24° E 07:33:11 10° SE visible
24 Oct 3.1 18:45:18 10° SE 18:50:15 56° ENE 18:55:15 10° N visible
24 Oct 5.2 20:25:23 10° SSW 20:29:38 26° W 20:33:54 10° NW visible
